SCP
0 0 0 0 0 0 0 0 0 0 0 0 0 0 0 0 0 0 0 0 0 0 0 0 0 0 0 0 0 0 0 0 0 0 0 0 0 0 0 0 0 0 0 0 0 0 0
0 0 0 0 0 0 0 0 0 0 0 0 0 0 0 0 0 0 0 0 0 0 0 0 0 0 0 0 0 0 0 0 0 0 0 0 0 0 0 0 0 0 0 0 0 0 0
0 0 0 0 0 0 0 0 0 0 0 0 0 0 0 0 0 0 0 0 0 0 0 0 0 0 0 0 0 0 0 0 0 0 0 0 0 0 0 0 0 0 0 0 0 0 0
0 0 0 0 0 0 0 0 0 0 0 0 0 0 0 0 0 0 0 0 0 0 0 0 0 0 0 0 0 0 0 0 0 0 0 0 0 0 0 0 0 0 0 0 0 0 0
0 0 0 0 0 0 0 0 0 0 0 0 0 0 0 0 0 0 0 0 0 0 0 0 0 0 0 0 0 0 0 0 0 0 0 0 0 0 0 0 0 0 0 0 0 0 0
0 0 0 0 0 0 0 0 0 0 0 0 0 0 0 0 0 0 0 0 0 0 0 0 0 0 0 0 0 0 0 0 0 0 0 0 0 0 0 0 0 0 0 0 0 0 0
0 0 0 0 0 0 0 0 0 0 0 0 0 0 0 0 0 0 0 0 0 0 0 0 0 0 0 0 0 0 0 0 0 0 0 0 0 0 0 0 0 0 0 0 0 0 0
0 0 0 0 0 0 0 0 0 0 0 0 0 0 0 0 0 0 0 0 0 0 0 0 0 0 0 0 0 0 0 0 0 0 0 0 0 0 0 0 0 0 0 0 0 0 0
0 0 0 0 0 0 0 0 0 0 0 0 0 0 0 0 0 0 0 0 0 0 0 0 0 0 0 0 0 0 0 0 0 0 0 0 0 0 0 0 0 0 0 0 0 0 0
0 0 0 0 0 0 0 0 0 0 0 0 0 0 0 0 0 0 0 0 0 0 0 0 0 0 0 0 0 0 0 0 0 0 0 0 0 0 0 0 0 0 0 0 0 0 0
0 0 0 0 0 0 0 0 0 0 0 0 0 0 0 0 0 0 0 0 0 0 0 0 0 0 0 0 0 0 0 0 0 0 0 0 0 0 0 0 0 0 0 0 0 0 0
0 0 0 0 0 0 0 0 0 0 0 0 0 0 0 0 0 0 0 0 0 0 0 0 0 0 0 0 0 0 0 0 0 0 0 0 0 0 0 0 0 0 0 0 0 0 0
0 0 0 0 0 0 0 0 0 0 0 0 0 0 0 0 0 0 0 0 0 0 0 0 0 0 0 0 0 0 0 0 0 0 0 0 0 0 0 0 0 0 0 0 0 0 0
0 0 0 0 0 0 0 0 0 0 0 0 0 0 0 0 0 0 0 0 0 0 0 0 0 0 0 0 0 0 0 0 0 0 0 0 0 0 0 0 0 0 0 0 0 0 0
0 0 0 0 0 0 0 0 0 0 0 0 0 0 0 0 0 0 0 0 0 0 0 0 0 0 0 0 0 0 0 0 0 0 0 0 0 0 0 0 0 0 0 0 0 0 0
0 0 0 0 0 0 0 0 0 0 0 0 0 0 0 0 0 0 0 0 0 0 0 0 0 0 0 0 0 0 0 0 0 0 0 0 0 0 0 0 0 0 0 0 0 0 0
0 0 0 0 0 0 0 0 0 0 0 0 0 0 0 0 0 0 0 0 0 0 0 0 0 0 0 0 0 0 0 0 0 0 0 0 0 0 0 0 0 0 0 0 0 0 0
0 0 0 0 0 0 0 0 0 0 0 0 0 0 0 0 0 0 0 0 0 0 0 0 0 0 0 0 0 0 0 0 0 0 0 0 0 0 0 0 0 0 0 0 0 0 0
0 0 0 0 0 0 0 0 0 0 0 0 0 0 0 0 0 0 0 0 0 0 0 0 0 0 0 0 0 0 0 0 0 0 0 0 0 0 0 0 0 0 0 0 0 0 0
0 0 0 0 0 0 0 0 0 0 0 0 0 0 0 0 0 0 0 0 0 0 0 0 0 0 0 0 0 0 0 0 0 0 0 0 0 0 0 0 0 0 0 0 0 0 0
0 0 0 0 0 0 0 0 0 0 0 0 0 0 0 0 0 0 0 0 0 0 0 0 0 0 0 0 0 0 0 0 0 0 0 0 0 0 0 0 0 0 0 0 0 0 0
0 0 0 0 0 0 0 0 0 0 0 0 0 0 0 0 0 0 0 0 0 0 0 0 0 0 0 0 0 0 0 0 0 0 0 0 0 0 0 0 0 0 0 0 0 0 0
0 0 0 0 0 0 0 0 0 0 0 0 0 0 0 0 0 0 0 0 0 0 0 0 0 0 0 0 0 0 0 0 0 0 0 0 0 0 0 0 0 0 0 0 0 0 0
0 0 0 0 0 0 0 0 0 0 0 0 0 0 0 0 0 0 0 0 0 0 0 0 0 0 0 0 0 0 0 0 0 0 0 0 0 0 0 0 0 0 0 0 0 0 0
0 0 0 0 0 0 0 0 0 0 0 0 0 0 0 0 0 0 0 0 0 0 0 0 0 0 0 0 0 0 0 0 0 0 0 0 0 0 0 0 0 0 0 0 0 0 0
0 0 0 0 0 0 0 0 0 0 0 0 0 0 0 0 0 0 0 0 0 0 0 0 0 0 0 0 0 0 0 0 0 0 0 0 0 0 0 0 0 0 0 0 0 0 0
0 0 0 0 0 0 0 0 0 0 0 0 0 0 0 0 0 0 0 0 0 0 0 0 0 0 0 0 0 0 0 0 0 0 0 0 0 0 0 0 0 0 0 0 0 0 0
0 0 0 0 0 0 0 0 0 0 0 0 0 0 0 0 0 0 0 0 0 0 0 0 0 0 0 0 0 0 0 0 0 0 0 0 0 0 0 0 0 0 0 0 0 0 0
0 0 0 0 0 0 0 0 0 0 0 0 0 0 0 0 0 0 0 0 0 0 0 0 0 0 0 0 0 0 0 0 0 0 -0 0 0 0 0 0 0 0 0 0 0 0 -0
Wind_Speed_500mb
32 33 33 34 34 34 33 32 32 31 31 32 33 34 34 35 33 33 32 31 32 31 31 32 31 28 25 13 25 33 28 24 30 25 18 11 16 25 15 16 3 17 23 34 28 25 26
31 31 33 35 37 39 38 38 39 39 37 36 37 37 37 36 36 37 37 36 36 35 33 33 33 30 23 19 27 29 28 30 34 30 25 20 13 16 19 21 16 17 25 37 32 35 26
24 27 28 32 33 35 36 38 41 42 44 44 44 42 41 40 39 40 39 38 40 40 38 36 35 30 29 42 40 39 32 34 35 34 28 28 27 16 13 15 15 15 16 21 34 38 14
16 18 21 25 29 33 37 38 39 41 43 46 48 49 49 49 47 46 45 42 44 44 43 40 37 25 23 33 40 40 37 35 35 36 36 36 24 21 13 13 12 7 10 9 11 24 18
17 17 18 19 22 26 31 35 37 39 43 45 46 48 50 53 54 57 54 48 49 50 46 42 30 18 18 26 30 35 32 29 30 31 29 26 18 12 8 6 12 17 13 18 20 26 14
21 21 22 24 23 25 26 30 33 35 39 43 46 47 48 49 50 55 59 53 52 52 46 27 24 11 35 23 22 23 27 31 21 17 13 16 14 8 7 12 13 14 13 21 25 14 14
29 28 27 27 27 29 30 31 32 35 38 40 41 43 47 49 47 50 51 42 24 15 21 24 15 18 11 19 17 20 21 28 21 14 14 22 10 23 30 32 33 30 32 32 43 22 20
35 35 34 33 32 32 33 34 36 36 37 40 41 39 40 42 41 38 36 12 17 17 25 41 51 51 50 47 21 34 31 28 21 18 17 7 26 41 18 23 13 18 26 40 37 23 13
42 42 40 39 39 38 38 37 37 39 38 39 37 36 36 37 35 28 26 26 22 24 16 22 55 42 51 56 35 48 50 33 17 16 26 38 20 29 15 15 19 24 20 29 31 18 13
37 40 48 46 44 44 45 44 41 40 40 40 36 37 40 37 18 25 22 18 11 10 9 14 17 17 30 24 12 28 43 23 14 26 26 32 40 40 30 35 21 42 17 17 23 12 12
48 41 39 39 47 46 45 48 47 44 43 41 39 34 39 40 34 22 21 15 7 2 14 3 6 4 12 12 2 1 29 16 19 11 10 15 8 12 19 22 19 11 4 4 7 12 12
49 57 64 64 56 49 49 43 45 50 52 45 40 40 41 39 36 28 27 8 7 6 18 5 10 9 7 11 2 4 4 10 3 7 14 28 7 7 8 5 5 6 3 7 5 5 19
40 46 49 49 48 50 57 60 55 50 46 51 51 46 51 44 25 26 22 7 6 16 6 12 12 13 10 13 13 15 13 12 13 7 15 12 32 5 8 7 4 7 6 7 7 1 31
40 43 46 48 48 48 49 51 51 54 53 49 35 53 67 58 54 36 11 4 20 16 35 5 8 14 13 17 15 16 10 11 27 12 6 5 19 28 17 24 16 17 17 12 14 21 41
44 48 52 52 49 52 49 47 48 50 48 46 49 43 54 62 60 49 26 7 21 12 16 23 29 11 14 15 13 17 19 17 16 39 22 15 25 6 12 6 19 12 12 8 2 3 8
55 57 55 54 52 53 55 52 48 43 42 47 42 38 53 44 42 57 8 21 25 17 19 13 27 16 30 26 21 18 18 10 12 26 26 10 22 16 8 5 7 8 2 5 4 4 15
50 55 57 57 58 57 58 52 51 49 46 34 29 15 24 25 44 27 10 22 28 42 47 23 30 34 39 32 30 22 20 20 10 9 31 6 10 17 12 17 22 4 8 10 2 11 13
28 25 35 39 41 45 45 44 53 56 52 37 24 7 19 30 17 14 18 15 37 44 45 11 4 19 27 20 30 49 50 39 53 4 18 16 3 11 31 15 4 11 22 25 20 32 9
17 20 20 20 23 25 28 33 32 27 26 18 14 21 23 48 15 17 10 38 45 37 34 12 23 25 30 33 17 24 31 32 29 12 9 20 6 4 17 29 3 10 12 22 22 21 37
22 21 19 21 20 24 28 21 22 23 19 19 11 7 14 44 33 18 27 23 34 48 44 55 39 34 29 33 36 20 24 27 53 21 32 7 6 20 27 33 30 25 23 22 25 22 40
27 24 24 23 24 23 22 22 22 25 25 15 18 14 18 7 17 31 27 12 36 39 54 45 17 52 45 32 39 44 41 55 37 42 7 12 22 37 49 49 51 45 48 51 46 37 42
31 30 32 33 31 25 28 26 24 22 18 29 13 7 9 14 37 27 31 36 56 54 47 42 53 45 39 49 53 57 40 39 40 6 25 20 20 27 49 63 64 57 58 50 63 61 62
35 33 32 32 31 29 29 26 24 17 19 13 22 24 11 22 23 16 27 29 14 26 42 62 57 51 50 52 60 79 80 72 45 20 14 13 15 16 37 46 54 48 65 76 69 63 60
33 34 34 32 35 33 34 35 32 25 22 27 25 16 9 21 18 27 27 15 19 21 15 22 38 33 28 59 75 61 66 47 48 44 41 33 38 28 36 32 46 34 44 63 72 70 67
40 37 34 36 36 35 36 35 37 32 31 32 29 26 11 11 23 36 34 31 43 50 38 39 56 43 39 43 18 30 13 16 40 53 52 47 45 29 28 38 48 9 47 49 41 66 67
48 45 46 43 41 38 38 38 39 36 37 37 41 35 27 11 18 30 20 25 20 22 30 42 31 42 34 8 12 25 29 29 14 9 34 51 51 41 38 45 49 33 43 51 57 44 26
51 47 48 48 47 48 45 41 40 43 39 39 50 46 38 28 50 37 19 15 18 25 22 21 15 21 18 11 24 31 35 16 19 24 15 13 28 47 47 40 25 9 31 28 31 43 42
54 51 49 46 52 49 47 46 43 41 46 46 53 53 54 37 61 45 51 43 33 34 19 10 19 12 7 19 20 30 27 14 17 26 32 16 16 17 27 40 58 32 20 30 29 46 59
58 55 54 54 49 47 47 49 48 44 46 45 58 52 53 56 41 15 28 49 46 47 47 29 15 12 11 8 10 9 14 14 15 13 3 12 3 9 11 11 20 27 30 65 47 46 47
Wind_Direction_500mb
263 263 264 266 268 273 275 276 278 281 285 289 292 296 300 304 306 308 311 315 316 318 321 323 324 327 321 289 258 277 280 242 229 231 234 234 254 250 258 298 254 237 263 277 270 254 244
269 272 271 270 273 276 277 279 283 284 282 284 288 291 294 297 301 304 307 310 312 312 313 314 315 313 301 249 271 272 272 243 233 233 239 233 240 276 293 266 270 346 304 290 282 245 227
279 280 285 285 284 283 283 285 284 282 284 286 286 287 290 292 295 297 300 303 305 307 307 308 308 302 276 273 276 277 273 253 240 237 236 247 247 247 316 270 314 290 304 277 254 236 236
286 291 291 291 289 289 289 289 290 292 289 286 285 286 287 289 290 291 294 298 299 300 300 301 299 288 263 271 265 259 261 248 240 238 240 250 251 248 237 306 276 233 240 281 268 206 162
293 295 297 299 301 302 299 297 296 296 294 294 294 294 293 291 290 289 289 293 295 297 296 290 283 255 258 262 254 254 246 239 238 240 242 245 225 230 177 215 284 226 250 236 273 179 134
289 295 300 303 305 306 308 310 310 303 300 299 300 302 301 299 299 294 290 294 294 294 287 271 239 241 242 240 253 255 237 228 222 220 226 208 204 223 197 198 230 255 247 283 278 200 198
285 289 291 296 302 306 308 310 310 310 307 303 303 307 307 306 307 306 307 310 310 283 234 220 224 209 229 240 250 249 229 211 207 197 201 186 182 218 215 216 234 254 264 261 271 265 188
277 283 286 289 292 296 301 305 306 308 309 311 316 317 315 318 318 317 308 321 279 286 298 258 253 253 251 257 247 243 219 185 183 213 209 209 219 235 258 261 259 276 276 271 275 286 179
275 277 282 285 286 288 292 296 300 302 306 308 313 317 321 328 330 321 315 289 277 280 259 259 255 239 241 242 238 240 211 198 193 210 212 227 205 218 225 241 261 238 243 262 265 282 217
274 273 269 278 281 286 287 286 288 294 296 299 305 314 319 331 331 336 326 328 296 282 270 223 206 215 219 208 260 213 198 206 229 222 216 253 239 245 249 256 228 268 239 263 271 270 243
277 275 268 271 271 276 277 282 282 282 284 288 295 304 309 320 321 323 309 306 273 297 280 308 152 192 186 192 121 202 202 206 243 204 181 219 176 197 232 235 187 258 72 296 286 269 312
271 277 274 273 273 273 271 271 271 279 274 274 279 287 289 298 307 318 327 282 177 246 245 214 148 180 169 206 214 111 165 195 303 286 243 256 124 225 217 88 118 128 305 247 249 231 256
270 270 281 284 282 280 277 278 274 266 272 271 268 272 272 275 267 291 321 158 245 228 192 184 207 180 215 181 192 191 173 187 192 173 220 225 233 151 148 154 180 174 158 295 301 269 264
276 276 277 279 283 285 285 283 279 272 271 273 274 269 266 265 263 265 199 339 228 213 217 101 187 174 209 180 222 192 214 235 223 235 294 246 270 176 182 212 176 180 176 174 225 258 278
275 274 275 276 275 275 276 279 279 281 281 277 269 273 277 257 251 244 135 193 241 284 274 282 294 259 218 216 232 170 217 238 213 188 201 196 251 45 160 197 162 182 196 211 254 43 313
276 276 275 275 276 274 270 270 272 276 279 283 277 272 274 277 256 218 126 222 246 271 322 301 263 277 271 234 199 188 208 207 229 190 217 247 261 182 154 74 278 189 262 119 231 228 240
278 277 275 277 280 279 276 274 272 271 270 265 278 234 249 257 217 178 204 224 249 248 243 258 274 284 287 290 291 262 243 249 278 242 197 266 231 253 122 200 186 167 233 226 237 187 222
274 294 287 288 289 282 279 284 282 274 272 271 260 244 232 205 162 195 224 212 236 255 252 248 200 233 258 294 293 285 289 285 358 189 170 206 203 258 241 225 261 232 215 203 222 240 236
305 302 302 306 317 310 301 284 287 298 299 249 239 248 234 202 227 222 258 235 237 262 248 228 229 212 234 254 257 253 269 274 303 34 54 354 302 268 280 296 359 229 240 250 253 252 247
295 301 307 307 313 317 322 314 290 276 270 247 260 248 186 211 222 233 236 237 244 242 253 252 258 260 248 252 241 248 245 262 256 219 190 67 283 272 259 261 288 284 258 241 240 254 258
285 290 292 291 293 301 310 315 318 295 255 262 225 237 217 201 247 245 240 202 242 249 238 243 224 229 236 246 252 246 243 256 260 265 238 170 230 224 239 245 260 262 260 273 273 257 252
283 288 287 279 280 287 303 303 301 297 290 248 249 278 329 277 263 251 238 252 252 258 249 242 235 241 235 236 237 252 225 236 243 276 206 189 230 216 236 241 251 260 265 260 252 256 255
281 284 285 282 283 287 285 285 290 278 275 262 252 260 279 262 264 268 251 265 264 271 272 278 280 275 269 257 250 246 252 262 267 233 212 199 202 208 244 237 244 250 244 250 256 251 244
283 281 282 281 280 283 281 274 273 271 258 261 262 283 250 267 265 261 277 284 305 307 287 294 307 298 301 303 306 301 282 270 261 251 224 228 232 238 252 249 231 227 229 233 243 248 250
275 279 278 279 281 280 280 276 277 265 254 257 263 272 255 265 263 269 278 285 304 298 287 281 288 279 296 307 288 280 268 252 244 234 233 228 235 248 244 241 257 226 218 223 230 241 245
272 271 275 272 273 277 277 276 274 274 263 258 259 263 252 278 242 268 291 300 298 298 296 283 291 306 304 273 250 259 257 260 251 268 228 234 232 235 241 249 252 239 236 245 257 261 241
267 270 276 277 276 269 267 265 269 273 272 261 260 258 250 256 268 257 249 268 287 285 282 297 333 329 314 263 266 267 269 269 249 261 239 226 230 241 239 245 251 238 270 291 246 263 268
270 268 272 271 273 277 275 267 266 270 271 268 264 257 250 253 264 253 248 264 262 262 275 335 341 260 272 255 268 276 279 305 304 288 273 269 276 256 260 267 267 4 295 247 330 354 0
271 268 266 269 274 277 274 268 265 262 263 264 264 262 259 247 252 241 242 245 244 252 265 262 251 303 249 287 308 333 312 307 297 281 338 273 351 307 311 328 319 336 331 316 306 330 340
Wind_Speed_850mb
32 33 33 34 34 34 33 32 32 31 31 32 33 34 34 35 33 33 32 31 32 31 31 32 31 28 25 13 25 33 28 24 30 25 18 11 16 25 15 16 3 17 23 34 28 25 26
31 31 33 35 37 39 38 38 39 39 37 36 37 37 37 36 36 37 37 36 36 35 33 33 33 30 23 19 27 29 28 30 34 30 25 20 13 16 19 21 16 17 25 37 32 35 26
24 27 28 32 33 35 36 38 41 42 44 44 44 42 41 40 39 40 39 38 40 40 38 36 35 30 29 42 40 39 32 34 35 34 28 28 27 16 13 15 15 15 16 21 34 38 14
16 18 21 25 29 33 37 38 39 41 43 46 48 49 49 49 47 46 45 42 44 44 43 40 37 25 23 33 40 40 37 35 35 36 36 36 24 21 13 13 12 7 10 9 11 24 18
17 17 18 19 22 26 31 35 37 39 43 45 46 48 50 53 54 57 54 48 49 50 46 42 30 18 18 26 30 35 32 29 30 31 29 26 18 12 8 6 12 17 13 18 20 26 14
21 21 22 24 23 25 26 30 33 35 39 43 46 47 48 49 50 55 59 53 52 52 46 27 24 11 35 23 22 23 27 31 21 17 13 16 14 8 7 12 13 14 13 21 25 14 14
29 28 27 27 27 29 30 31 32 35 38 40 41 43 47 49 47 50 51 42 24 15 21 24 15 18 11 19 17 20 21 28 21 14 14 22 10 23 30 32 33 30 32 32 43 22 20
35 35 34 33 32 32 33 34 36 36 37 40 41 39 40 42 41 38 36 12 17 17 25 41 51 51 50 47 21 34 31 28 21 18 17 7 26 41 18 23 13 18 26 40 37 23 13
42 42 40 39 39 38 38 37 37 39 38 39 37 36 36 37 35 28 26 26 22 24 16 22 55 42 51 56 35 48 50 33 17 16 26 38 20 29 15 15 19 24 20 29 31 18 13
37 40 48 46 44 44 45 44 41 40 40 40 36 37 40 37 18 25 22 18 11 10 9 14 17 17 30 24 12 28 43 23 14 26 26 32 40 40 30 35 21 42 17 17 23 12 12
48 41 39 39 47 46 45 48 47 44 43 41 39 34 39 40 34 22 21 15 7 2 14 3 6 4 12 12 2 1 29 16 19 11 10 15 8 12 19 22 19 11 4 4 7 12 12
49 57 64 64 56 49 49 43 45 50 52 45 40 40 41 39 36 28 27 8 7 6 18 5 10 9 7 11 2 4 4 10 3 7 14 28 7 7 8 5 5 6 3 7 5 5 19
40 46 49 49 48 50 57 60 55 50 46 51 51 46 51 44 25 26 22 7 6 16 6 12 12 13 10 13 13 15 13 12 13 7 15 12 32 5 8 7 4 7 6 7 7 1 31
40 43 46 48 48 48 49 51 51 54 53 49 35 53 67 58 54 36 11 4 20 16 35 5 8 14 13 17 15 16 10 11 27 12 6 5 19 28 17 24 16 17 17 12 14 21 41
44 48 52 52 49 52 49 47 48 50 48 46 49 43 54 62 60 49 26 7 21 12 16 23 29 11 14 15 13 17 19 17 16 39 22 15 25 6 12 6 19 12 12 8 2 3 8
55 57 55 54 52 53 55 52 48 43 42 47 42 38 53 44 42 57 8 21 25 17 19 13 27 16 30 26 21 18 18 10 12 26 26 10 22 16 8 5 7 8 2 5 4 4 15
50 55 57 57 58 57 58 52 51 49 46 34 29 15 24 25 44 27 10 22 28 42 47 23 30 34 39 32 30 22 20 20 10 9 31 6 10 17 12 17 22 4 8 10 2 11 13
28 25 35 39 41 45 45 44 53 56 52 37 24 7 19 30 17 14 18 15 37 44 45 11 4 19 27 20 30 49 50 39 53 4 18 16 3 11 31 15 4 11 22 25 20 32 9
17 20 20 20 23 25 28 33 32 27 26 18 14 21 23 48 15 17 10 38 45 37 34 12 23 25 30 33 17 24 31 32 29 12 9 20 6 4 17 29 3 10 12 22 22 21 37
22 21 19 21 20 24 28 21 22 23 19 19 11 7 14 44 33 18 27 23 34 48 44 55 39 34 29 33 36 20 24 27 53 21 32 7 6 20 27 33 30 25 23 22 25 22 40
27 24 24 23 24 23 22 22 22 25 25 15 18 14 18 7 17 31 27 12 36 39 54 45 17 52 45 32 39 44 41 55 37 42 7 12 22 37 49 49 51 45 48 51 46 37 42
31 30 32 33 31 25 28 26 24 22 18 29 13 7 9 14 37 27 31 36 56 54 47 42 53 45 39 49 53 57 40 39 40 6 25 20 20 27 49 63 64 57 58 50 63 61 62
35 33 32 32 31 29 29 26 24 17 19 13 22 24 11 22 23 16 27 29 14 26 42 62 57 51 50 52 60 79 80 72 45 20 14 13 15 16 37 46 54 48 65 76 69 63 60
33 34 34 32 35 33 34 35 32 25 22 27 25 16 9 21 18 27 27 15 19 21 15 22 38 33 28 59 75 61 66 47 48 44 41 33 38 28 36 32 46 34 44 63 72 70 67
40 37 34 36 36 35 36 35 37 32 31 32 29 26 11 11 23 36 34 31 43 50 38 39 56 43 39 43 18 30 13 16 40 53 52 47 45 29 28 38 48 9 47 49 41 66 67
48 45 46 43 41 38 38 38 39 36 37 37 41 35 27 11 18 30 20 25 20 22 30 42 31 42 34 8 12 25 29 29 14 9 34 51 51 41 38 45 49 33 43 51 57 44 26
51 47 48 48 47 48 45 41 40 43 39 39 50 46 38 28 50 37 19 15 18 25 22 21 15 21 18 11 24 31 35 16 19 24 15 13 28 47 47 40 25 9 31 28 31 43 42
54 51 49 46 52 49 47 46 43 41 46 46 53 53 54 37 61 45 51 43 33 34 19 10 19 12 7 19 20 30 27 14 17 26 32 16 16 17 27 40 58 32 20 30 29 46 59
58 55 54 54 49 47 47 49 48 44 46 45 58 52 53 56 41 15 28 49 46 47 47 29 15 12 11 8 10 9 14 14 15 13 3 12 3 9 11 11 20 27 30 65 47 46 47
Wind_Direction_850mb
263 263 264 266 268 273 275 276 278 281 285 289 292 296 300 304 306 308 311 315 316 318 321 323 324 327 321 289 258 277 280 242 229 231 234 234 254 250 258 298 254 237 263 277 270 254 244
269 272 271 270 273 276 277 279 283 284 282 284 288 291 294 297 301 304 307 310 312 312 313 314 315 313 301 249 271 272 272 243 233 233 239 233 240 276 293 266 270 346 304 290 282 245 227
279 280 285 285 284 283 283 285 284 282 284 286 286 287 290 292 295 297 300 303 305 307 307 308 308 302 276 273 276 277 273 253 240 237 236 247 247 247 316 270 314 290 304 277 254 236 236
286 291 291 291 289 289 289 289 290 292 289 286 285 286 287 289 290 291 294 298 299 300 300 301 299 288 263 271 265 259 261 248 240 238 240 250 251 248 237 306 276 233 240 281 268 206 162
293 295 297 299 301 302 299 297 296 296 294 294 294 294 293 291 290 289 289 293 295 297 296 290 283 255 258 262 254 254 246 239 238 240 242 245 225 230 177 215 284 226 250 236 273 179 134
289 295 300 303 305 306 308 310 310 303 300 299 300 302 301 299 299 294 290 294 294 294 287 271 239 241 242 240 253 255 237 228 222 220 226 208 204 223 197 198 230 255 247 283 278 200 198
285 289 291 296 302 306 308 310 310 310 307 303 303 307 307 306 307 306 307 310 310 283 234 220 224 209 229 240 250 249 229 211 207 197 201 186 182 218 215 216 234 254 264 261 271 265 188
277 283 286 289 292 296 301 305 306 308 309 311 316 317 315 318 318 317 308 321 279 286 298 258 253 253 251 257 247 243 219 185 183 213 209 209 219 235 258 261 259 276 276 271 275 286 179
275 277 282 285 286 288 292 296 300 302 306 308 313 317 321 328 330 321 315 289 277 280 259 259 255 239 241 242 238 240 211 198 193 210 212 227 205 218 225 241 261 238 243 262 265 282 217
274 273 269 278 281 286 287 286 288 294 296 299 305 314 319 331 331 336 326 328 296 282 270 223 206 215 219 208 260 213 198 206 229 222 216 253 239 245 249 256 228 268 239 263 271 270 243
277 275 268 271 271 276 277 282 282 282 284 288 295 304 309 320 321 323 309 306 273 297 280 308 152 192 186 192 121 202 202 206 243 204 181 219 176 197 232 235 187 258 72 296 286 269 312
271 277 274 273 273 273 271 271 271 279 274 274 279 287 289 298 307 318 327 282 177 246 245 214 148 180 169 206 214 111 165 195 303 286 243 256 124 225 217 88 118 128 305 247 249 231 256
270 270 281 284 282 280 277 278 274 266 272 271 268 272 272 275 267 291 321 158 245 228 192 184 207 180 215 181 192 191 173 187 192 173 220 225 233 151 148 154 180 174 158 295 301 269 264
276 276 277 279 283 285 285 283 279 272 271 273 274 269 266 265 263 265 199 339 228 213 217 101 187 174 209 180 222 192 214 235 223 235 294 246 270 176 182 212 176 180 176 174 225 258 278
275 274 275 276 275 275 276 279 279 281 281 277 269 273 277 257 251 244 135 193 241 284 274 282 294 259 218 216 232 170 217 238 213 188 201 196 251 45 160 197 162 182 196 211 254 43 313
276 276 275 275 276 274 270 270 272 276 279 283 277 272 274 277 256 218 126 222 246 271 322 301 263 277 271 234 199 188 208 207 229 190 217 247 261 182 154 74 278 189 262 119 231 228 240
278 277 275 277 280 279 276 274 272 271 270 265 278 234 249 257 217 178 204 224 249 248 243 258 274 284 287 290 291 262 243 249 278 242 197 266 231 253 122 200 186 167 233 226 237 187 222
274 294 287 288 289 282 279 284 282 274 272 271 260 244 232 205 162 195 224 212 236 255 252 248 200 233 258 294 293 285 289 285 358 189 170 206 203 258 241 225 261 232 215 203 222 240 236
305 302 302 306 317 310 301 284 287 298 299 249 239 248 234 202 227 222 258 235 237 262 248 228 229 212 234 254 257 253 269 274 303 34 54 354 302 268 280 296 359 229 240 250 253 252 247
295 301 307 307 313 317 322 314 290 276 270 247 260 248 186 211 222 233 236 237 244 242 253 252 258 260 248 252 241 248 245 262 256 219 190 67 283 272 259 261 288 284 258 241 240 254 258
285 290 292 291 293 301 310 315 318 295 255 262 225 237 217 201 247 245 240 202 242 249 238 243 224 229 236 246 252 246 243 256 260 265 238 170 230 224 239 245 260 262 260 273 273 257 252
283 288 287 279 280 287 303 303 301 297 290 248 249 278 329 277 263 251 238 252 252 258 249 242 235 241 235 236 237 252 225 236 243 276 206 189 230 216 236 241 251 260 265 260 252 256 255
281 284 285 282 283 287 285 285 290 278 275 262 252 260 279 262 264 268 251 265 264 271 272 278 280 275 269 257 250 246 252 262 267 233 212 199 202 208 244 237 244 250 244 250 256 251 244
283 281 282 281 280 283 281 274 273 271 258 261 262 283 250 267 265 261 277 284 305 307 287 294 307 298 301 303 306 301 282 270 261 251 224 228 232 238 252 249 231 227 229 233 243 248 250
275 279 278 279 281 280 280 276 277 265 254 257 263 272 255 265 263 269 278 285 304 298 287 281 288 279 296 307 288 280 268 252 244 234 233 228 235 248 244 241 257 226 218 223 230 241 245
272 271 275 272 273 277 277 276 274 274 263 258 259 263 252 278 242 268 291 300 298 298 296 283 291 306 304 273 250 259 257 260 251 268 228 234 232 235 241 249 252 239 236 245 257 261 241
267 270 276 277 276 269 267 265 269 273 272 261 260 258 250 256 268 257 249 268 287 285 282 297 333 329 314 263 266 267 269 269 249 261 239 226 230 241 239 245 251 238 270 291 246 263 268
270 268 272 271 273 277 275 267 266 270 271 268 264 257 250 253 264 253 248 264 262 262 275 335 341 260 272 255 268 276 279 305 304 288 273 269 276 256 260 267 267 4 295 247 330 354 0
271 268 266 269 274 277 274 268 265 262 263 264 264 262 259 247 252 241 242 245 244 252 265 262 251 303 249 287 308 333 312 307 297 281 338 273 351 307 311 328 319 336 331 316 306 330 340